SCP
0 -0 0 0 0 0 0 0 0 -0 -0 -0 -0 -0 -0 -0 -0 -0 -0 0 0 0 0 0 0 0 0 0 0 0 0 0 0 0 0 0 0 0 0 0 0 0 0
0 0 0 0 0 0 0 0 -0 -0 -0 -0 -0 -0 -0 -0 -0 -0 -0 -0 -0 -0 0 0 0 0 0 0 0 0 0 0 0 0 0 0 0 0 0 0 0 0 0
0 0 0 0 0 0 0 -0 -0 -0 -0 -0 -0 -0 -0 -0 -0 -0 -0 -0 0 0 0 0 0 0 0 0 0 0 0 0 0 0 0 0 0 0 0 0 0 0 0
0 0 0 0 0 0 -0 -0 -0 -0 -0 -0 -0 -0 -0 -0 -0 -0 0 0 0 0 0 0 0 0 0 0 0 0 0 0 0 0 0 0 0 0 0 0 0 0 0
0 0 0 0 0 -0 -0 -0 -0 -0 -0 -0 -0 -0 -0 0 0 0 0 0 0 0 0 0 0 0 0 0 0 0 0 0 0 0 0 0 0 0 0 0 0 0 0
0 0 0 0 -0 -0 -0 -0 -0 -0 -0 -0 -0 0 0 0 0 0 0 0 -0 0 0 0 0 0 0 0 0 0 0 0 0 0 -0 -0 0 0 0 0 0 0 0
0 0 0 -0 -0 -0 -0 -0 -0 -0 -0 -0 0 0 0 0 0 -0 -0 -0 -0 -0 -0 -0 0 0 0 0 0 0 0 0 0 0 0 -0 0 -0 0 -0 -0 0 0
0 0 0 -0 -0 -0 -0 -0 -0 -0 0 0 0 0 0 -0 -0 -0 -0 -0 -0 -0 -0 -0 -0 -0 -0 0 0 0 0 0 0 0 0 0 0 0 0 0 0 -0 0
0 0 0 -0 0 -0 -0 -0 -0 0 0 0 0 -0 -0 -0 -0 -0 -0 -0 -0 -0 -0 -0 -0 -0 -0 -0 -0 -0 0 0 0 0 0 0 0 0 0 0 0 -0 0
0 -0 0 0 0 0 0 -0 0 0 0 0 -0 -0 -0 -0 -0 -0 -0 -0 -0 -0 -0 -0 -0 -0 -0 -0 -0 0 0 0 -0 -0 -0 0 0 0 0 0 0 0 0
-0 0 -0 0 -0 -0 -0 -0 -0 -0 -0 -0 -0 -0 -0 -0 -0 -0 -0 -0 -0 -0 -0 -0 -0 -0 -0 -0 -0 0 0 0 0 0 0 0 0 0 0 0 0 0 0
-0 -0 -0 -0 -0 -0 -0 -0 -0 -0 -0 -0 -0 -0 0 0 0 0 0 0 0 -0 -0 -0 -0 -0 -0 0 0 -0 0 0 0 0 0 0 0 0 0 0 0 0 0
-0 -0 -0 -0 -0 -0 -0 -0 -0 -0 -0 -0 0 0 0 0 0 0 0 0 0 0 0 0 0 0 0 0 0 0 0 0 0 0 0 0 0 0 0 0 0 0 0
0 -0 -0 -0 0 -0 -0 -0 0 0 0 0 0 0 0 0 0 0 0 0 0 0 0 0 0 0 0 0 0 0 0 0 0 0 0 0 0 0 0 0 0 0 0
-0 0 0 0 0 0 0 0 0 0 0 0 0 0 0 0 0 0 0 0 0 0 0 0 0 0 0 0 0 0 0 0 0 0 0 0 0 0 0 0 0 0 0
-0 -0 0 0 0 0 0 0 0 0 0 0 0 0 0 0 0 0 0 0 0 0 0 0 0 0 0 0 0 0 0 0 0 0 0 0 0 0 0 0 0 0 0
0 0 0 0 0 0 0 0 0 0 0 0 0 0 0 0 0 0 0 0 0 0 0 0 0 0 0 0 0 0 0 0 0 0 0 0 0 0 0 0 0 0 0
0 0 0 0 0 0 0 0 0 0 0 0 0 0 0 0 0 0 0 0 0 0 0 0 0 0 0 0 0 0 0 0 0 0 0 -0 0 0 0 0 0 -0 -0
0 0 0 0 0 0 0 0 0 0 0 0 0 0 0 0 0 0 0 0 0 0 0 0 0 0 0 0 0 0 0 0 0 0 0 0 0 0 0 0 0 0 0
0 0 0 0 0 0 0 0 0 0 0 0 0 0 0 0 0 0 0 0 0 0 0 0 0 0 0 0 0 0 0 0 0 0 0 0 0 0 0 0 0 0 0
0 0 0 0 0 0 0 0 0 0 0 0 0 0 0 0 0 0 0 0 0 0 0 0 0 0 0 0 0 0 0 0 0 0 0 0 0 0 0 0 0 0 0
0 0 0 0 0 0 0 0 0 0 0 0 0 0 0 0 0 0 0 0 0 0 0 0 0 0 0 0 0 0 0 0 0 0 0 0 0 0 0 0 0 0 0
0 0 0 0 0 0 0 0 0 0 0 0 0 0 0 0 0 0 0 0 0 0 0 0 0 0 0 0 0 0 0 0 0 0 0 0 0 0 0 0 0 0 0
0 0 0 0 0 0 0 0 0 0 0 0 0 0 0 0 0 0 0 0 0 0 0 0 0 0 0 0 0 0 0 0 0 0 0 0 -0 -0 -0 0 -0 0 0
0 0 0 0 0 0 0 0 0 0 0 0 0 0 0 0 0 0 0 0 0 0 0 0 0 0 0 0 0 0 0 0 0 0 0 0 0 0 0 0 0 0 0
0 0 0 0 0 0 0 0 0 0 0 0 0 0 0 0 0 0 0 0 0 0 0 0 0 0 0 0 0 0 0 0 0 0 0 0 0 0 0 0 0 0 0
Wind_Speed_500mb
40 39 35 32 30 29 27 24 21 21 21 20 19 20 20 21 20 18 17 17 18 19 20 20 19 18 16 14 10 9 12 16 20 22 19 12 10 12 14 17 16 15 18
45 42 36 32 30 27 25 23 22 21 19 18 19 18 19 19 18 19 19 20 20 21 21 21 20 20 19 17 16 12 12 14 19 21 21 19 21 15 17 17 19 22 19
45 43 38 32 28 26 25 23 23 19 18 18 17 17 17 19 19 19 18 17 19 19 19 21 25 26 24 20 19 17 13 10 13 20 23 23 23 26 23 18 26 21 29
45 43 38 32 30 29 26 25 22 20 17 17 16 15 16 17 18 20 20 21 21 19 20 22 24 23 22 21 19 18 15 11 12 15 19 24 24 23 26 29 31 36 25
45 40 36 32 30 28 27 23 19 17 16 16 13 14 15 17 19 21 23 23 22 21 21 22 23 22 19 17 15 12 11 11 12 14 16 17 21 21 17 25 32 29 21
42 39 35 32 29 26 23 21 16 15 14 13 14 14 15 18 19 20 20 21 21 21 21 22 22 21 20 18 16 13 12 12 14 12 17 17 15 14 19 37 36 21 22
44 39 34 30 26 23 19 15 13 12 13 12 10 13 17 18 16 18 21 22 20 22 22 21 21 21 21 20 19 17 16 15 18 18 18 15 13 15 19 25 30 31 23
41 37 32 26 21 18 15 13 12 11 11 7 10 17 16 17 16 17 19 22 24 24 24 25 25 24 23 20 18 23 23 22 21 23 21 19 17 16 15 22 20 20 23
37 33 29 23 19 18 17 15 11 10 8 10 15 16 17 17 18 22 22 23 25 26 27 28 32 30 25 21 26 30 26 25 22 22 24 23 22 21 20 18 22 24 30
32 27 23 18 17 17 17 16 14 15 15 15 17 19 16 17 19 20 20 23 25 26 26 27 33 38 32 28 30 32 31 29 26 25 29 31 27 23 22 26 24 27 30
30 23 19 20 22 22 21 21 19 17 16 17 18 17 17 16 15 18 20 22 23 24 24 28 34 37 39 37 35 35 33 33 33 32 33 34 31 25 26 27 30 31 32
29 24 20 20 23 25 24 23 19 17 15 14 10 12 13 10 12 15 18 20 20 22 26 32 36 39 40 45 39 35 33 31 32 33 33 33 33 35 33 32 32 33 30
26 25 23 23 26 25 23 24 20 15 14 11 8 7 6 5 10 13 15 17 20 22 25 31 35 39 43 46 46 40 36 34 32 34 34 30 34 33 33 36 39 40 37
34 26 27 26 29 27 24 22 19 17 12 12 7 3 3 7 11 10 12 16 17 18 22 26 29 33 41 44 46 45 44 38 37 37 36 35 34 35 38 38 35 36 39
41 33 32 31 29 28 26 24 20 16 11 11 4 1 4 10 14 13 12 14 15 21 27 29 31 36 42 47 52 55 50 44 42 39 38 40 40 39 38 40 40 39 36
47 39 38 34 28 26 24 21 20 18 14 12 3 3 5 9 12 12 14 17 22 32 37 45 53 45 43 50 58 53 50 50 40 32 26 31 37 43 48 44 40 39 36
49 43 40 32 29 27 27 23 17 20 17 13 9 13 18 18 20 21 22 22 28 36 52 59 55 48 47 54 46 42 42 42 44 42 38 35 38 42 39 50 58 51 43
50 48 48 45 42 24 26 19 24 20 18 17 22 25 23 20 23 21 26 32 40 51 62 63 55 49 54 47 46 44 42 39 38 41 44 46 44 37 41 43 46 59 63
59 58 54 38 33 25 25 12 20 21 17 18 16 14 17 18 26 31 35 41 50 62 58 49 48 49 44 45 50 53 50 49 49 52 48 50 47 47 48 46 49 50 54
52 56 53 46 35 19 29 31 26 23 16 10 11 13 20 26 30 34 38 49 59 53 43 39 43 43 45 49 53 56 60 62 64 62 52 52 53 47 42 38 39 46 50
34 46 38 38 16 14 20 24 24 13 4 8 17 25 28 31 40 45 51 50 44 37 34 37 42 46 47 54 61 68 74 62 50 46 33 37 49 50 43 34 31 33 40
17 17 15 13 9 11 18 9 9 20 24 26 26 29 42 43 42 43 48 42 37 36 38 42 47 51 53 55 60 64 40 58 30 40 50 37 43 47 50 55 54 53 50
15 13 16 13 4 8 14 19 23 20 21 29 35 42 42 38 39 35 32 34 39 42 44 43 46 49 53 51 47 36 26 18 50 45 52 45 46 60 68 69 71 70 68
24 18 14 12 13 16 19 24 28 25 34 33 37 35 32 35 32 32 38 47 57 53 47 44 52 53 47 42 36 32 32 33 41 41 38 70 73 73 66 62 61 57 56
19 15 17 18 22 26 29 31 34 34 33 34 25 22 19 25 35 40 50 66 62 42 46 52 61 50 40 34 32 38 42 41 35 45 62 53 67 73 70 66 63 54 41
9 7 8 9 14 20 25 31 34 34 32 26 25 21 25 45 57 66 72 52 47 49 57 56 60 48 44 44 45 38 38 37 42 39 44 57 59 67 59 52 57 44 30
Wind_Direction_500mb
159 153 154 157 158 157 147 143 135 129 122 116 105 97 92 89 82 77 65 52 38 27 16 10 6 2 357 352 332 300 278 279 281 291 291 290 285 296 305 329 338 321 328
158 155 160 167 166 159 151 146 141 133 126 116 105 95 87 79 71 63 53 42 30 18 16 15 11 10 11 12 5 356 337 307 287 275 280 281 291 289 302 309 305 308 306
157 155 163 169 163 157 155 149 142 140 131 120 108 94 83 72 65 55 39 29 26 26 31 34 33 29 29 27 19 12 9 341 301 279 267 266 276 293 303 297 303 312 307
155 157 160 161 160 161 155 149 146 140 131 117 103 93 78 68 57 41 32 38 43 41 43 42 38 33 29 30 27 15 7 345 308 295 280 271 267 273 294 300 300 295 290
155 156 158 161 163 159 156 153 143 132 120 106 98 89 71 60 48 37 44 51 51 46 37 30 26 22 25 33 33 24 9 347 312 286 282 279 278 294 297 305 297 302 291
152 157 158 161 162 160 154 147 135 122 115 108 95 68 58 52 40 49 53 56 50 37 23 15 10 2 359 7 5 358 345 332 308 291 278 277 270 264 293 292 297 280 279
155 154 154 158 159 156 150 143 134 122 114 106 84 65 63 54 54 59 57 47 35 28 18 11 1 353 345 343 344 342 336 325 309 298 288 288 287 287 309 308 289 284 266
153 153 152 155 158 157 156 148 141 130 116 102 75 79 74 72 70 57 56 54 46 37 37 28 19 13 0 353 353 338 326 324 309 299 296 302 296 310 322 321 304 285 276
149 146 151 154 156 159 159 154 144 126 120 114 97 94 86 79 76 76 66 59 53 52 44 44 39 29 18 6 1 1 341 328 321 304 302 309 307 308 308 314 301 287 278
146 146 145 148 156 157 157 147 141 128 123 111 98 99 82 93 88 76 65 52 50 45 39 36 35 32 28 16 10 7 5 351 332 316 304 306 304 303 310 315 314 306 289
150 153 142 144 138 141 150 141 133 121 120 116 107 113 113 107 89 63 54 45 38 37 32 23 19 16 18 14 14 14 9 2 357 343 327 316 319 307 302 306 312 307 298
162 161 157 157 148 143 145 133 125 127 122 118 104 126 126 101 72 53 47 39 26 28 18 11 5 3 1 360 359 1 1 358 355 353 350 342 332 324 315 309 311 311 306
174 175 176 174 166 150 144 140 139 131 127 113 121 124 123 63 43 42 37 30 20 11 5 357 355 353 350 345 344 339 340 342 341 342 342 343 345 344 336 322 308 308 306
190 189 187 189 180 172 170 170 165 153 154 157 145 105 68 15 8 8 11 10 4 351 346 342 342 336 330 325 323 324 324 324 326 320 322 327 333 331 330 328 325 317 304
199 201 202 201 191 188 182 182 184 176 181 186 181 177 12 344 328 304 325 330 330 331 327 325 324 317 314 310 311 309 312 311 310 306 302 301 307 312 311 310 313 317 315
207 211 207 208 197 196 197 200 199 192 201 215 255 287 277 282 282 260 264 288 313 321 326 323 318 308 308 311 309 301 302 302 301 306 306 298 294 296 296 295 300 304 305
220 223 220 214 199 203 213 210 222 211 211 213 239 244 245 255 263 256 278 297 307 310 313 314 314 307 306 310 302 300 301 297 300 302 302 296 293 290 286 281 281 284 293
229 228 212 202 194 190 220 219 205 190 190 204 216 229 248 257 258 259 284 293 295 304 315 317 310 308 311 300 299 300 300 302 303 300 305 307 304 295 287 283 271 264 269
230 223 209 205 208 238 233 287 242 181 185 180 201 222 245 253 266 279 288 294 304 311 312 309 307 308 305 301 302 305 306 305 307 311 308 308 313 311 302 294 284 274 265
223 222 218 224 262 198 228 227 210 189 185 221 214 248 275 285 292 290 297 311 314 311 307 297 300 299 307 312 307 303 302 302 304 307 307 301 301 306 302 296 284 280 277
213 218 231 249 244 251 202 189 185 218 237 279 297 297 292 293 308 311 315 319 312 309 310 311 309 309 308 310 310 305 303 313 308 310 299 294 295 295 294 293 304 294 283
180 187 227 277 160 190 178 161 343 324 298 287 291 311 315 309 312 311 317 311 301 299 301 305 310 313 315 318 323 323 325 314 314 300 310 297 297 294 298 301 299 296 293
113 89 87 84 68 340 311 320 333 324 308 311 307 317 314 307 310 308 309 308 309 311 312 314 314 319 321 321 323 329 331 315 321 313 303 300 291 296 302 307 304 301 299
86 80 70 48 34 19 4 348 345 336 327 316 314 309 305 305 304 306 313 322 322 316 313 317 327 325 320 319 314 298 299 310 323 316 302 300 303 305 309 309 307 302 296
72 52 37 24 12 1 348 337 335 324 312 305 296 293 298 304 311 317 322 318 312 310 320 317 322 320 316 312 310 308 303 301 308 304 312 309 310 307 307 310 305 307 305
104 89 52 21 354 335 324 323 314 296 296 286 274 272 296 318 317 313 307 304 299 309 313 311 314 311 305 300 301 308 312 317 312 318 308 308 312 316 313 303 298 306 301
Wind_Speed_850mb
40 39 35 32 30 29 27 24 21 21 21 20 19 20 20 21 20 18 17 17 18 19 20 20 19 18 16 14 10 9 12 16 20 22 19 12 10 12 14 17 16 15 18
45 42 36 32 30 27 25 23 22 21 19 18 19 18 19 19 18 19 19 20 20 21 21 21 20 20 19 17 16 12 12 14 19 21 21 19 21 15 17 17 19 22 19
45 43 38 32 28 26 25 23 23 19 18 18 17 17 17 19 19 19 18 17 19 19 19 21 25 26 24 20 19 17 13 10 13 20 23 23 23 26 23 18 26 21 29
45 43 38 32 30 29 26 25 22 20 17 17 16 15 16 17 18 20 20 21 21 19 20 22 24 23 22 21 19 18 15 11 12 15 19 24 24 23 26 29 31 36 25
45 40 36 32 30 28 27 23 19 17 16 16 13 14 15 17 19 21 23 23 22 21 21 22 23 22 19 17 15 12 11 11 12 14 16 17 21 21 17 25 32 29 21
42 39 35 32 29 26 23 21 16 15 14 13 14 14 15 18 19 20 20 21 21 21 21 22 22 21 20 18 16 13 12 12 14 12 17 17 15 14 19 37 36 21 22
44 39 34 30 26 23 19 15 13 12 13 12 10 13 17 18 16 18 21 22 20 22 22 21 21 21 21 20 19 17 16 15 18 18 18 15 13 15 19 25 30 31 23
41 37 32 26 21 18 15 13 12 11 11 7 10 17 16 17 16 17 19 22 24 24 24 25 25 24 23 20 18 23 23 22 21 23 21 19 17 16 15 22 20 20 23
37 33 29 23 19 18 17 15 11 10 8 10 15 16 17 17 18 22 22 23 25 26 27 28 32 30 25 21 26 30 26 25 22 22 24 23 22 21 20 18 22 24 30
32 27 23 18 17 17 17 16 14 15 15 15 17 19 16 17 19 20 20 23 25 26 26 27 33 38 32 28 30 32 31 29 26 25 29 31 27 23 22 26 24 27 30
30 23 19 20 22 22 21 21 19 17 16 17 18 17 17 16 15 18 20 22 23 24 24 28 34 37 39 37 35 35 33 33 33 32 33 34 31 25 26 27 30 31 32
29 24 20 20 23 25 24 23 19 17 15 14 10 12 13 10 12 15 18 20 20 22 26 32 36 39 40 45 39 35 33 31 32 33 33 33 33 35 33 32 32 33 30
26 25 23 23 26 25 23 24 20 15 14 11 8 7 6 5 10 13 15 17 20 22 25 31 35 39 43 46 46 40 36 34 32 34 34 30 34 33 33 36 39 40 37
34 26 27 26 29 27 24 22 19 17 12 12 7 3 3 7 11 10 12 16 17 18 22 26 29 33 41 44 46 45 44 38 37 37 36 35 34 35 38 38 35 36 39
41 33 32 31 29 28 26 24 20 16 11 11 4 1 4 10 14 13 12 14 15 21 27 29 31 36 42 47 52 55 50 44 42 39 38 40 40 39 38 40 40 39 36
47 39 38 34 28 26 24 21 20 18 14 12 3 3 5 9 12 12 14 17 22 32 37 45 53 45 43 50 58 53 50 50 40 32 26 31 37 43 48 44 40 39 36
49 43 40 32 29 27 27 23 17 20 17 13 9 13 18 18 20 21 22 22 28 36 52 59 55 48 47 54 46 42 42 42 44 42 38 35 38 42 39 50 58 51 43
50 48 48 45 42 24 26 19 24 20 18 17 22 25 23 20 23 21 26 32 40 51 62 63 55 49 54 47 46 44 42 39 38 41 44 46 44 37 41 43 46 59 63
59 58 54 38 33 25 25 12 20 21 17 18 16 14 17 18 26 31 35 41 50 62 58 49 48 49 44 45 50 53 50 49 49 52 48 50 47 47 48 46 49 50 54
52 56 53 46 35 19 29 31 26 23 16 10 11 13 20 26 30 34 38 49 59 53 43 39 43 43 45 49 53 56 60 62 64 62 52 52 53 47 42 38 39 46 50
34 46 38 38 16 14 20 24 24 13 4 8 17 25 28 31 40 45 51 50 44 37 34 37 42 46 47 54 61 68 74 62 50 46 33 37 49 50 43 34 31 33 40
17 17 15 13 9 11 18 9 9 20 24 26 26 29 42 43 42 43 48 42 37 36 38 42 47 51 53 55 60 64 40 58 30 40 50 37 43 47 50 55 54 53 50
15 13 16 13 4 8 14 19 23 20 21 29 35 42 42 38 39 35 32 34 39 42 44 43 46 49 53 51 47 36 26 18 50 45 52 45 46 60 68 69 71 70 68
24 18 14 12 13 16 19 24 28 25 34 33 37 35 32 35 32 32 38 47 57 53 47 44 52 53 47 42 36 32 32 33 41 41 38 70 73 73 66 62 61 57 56
19 15 17 18 22 26 29 31 34 34 33 34 25 22 19 25 35 40 50 66 62 42 46 52 61 50 40 34 32 38 42 41 35 45 62 53 67 73 70 66 63 54 41
9 7 8 9 14 20 25 31 34 34 32 26 25 21 25 45 57 66 72 52 47 49 57 56 60 48 44 44 45 38 38 37 42 39 44 57 59 67 59 52 57 44 30
Wind_Direction_850mb
159 153 154 157 158 157 147 143 135 129 122 116 105 97 92 89 82 77 65 52 38 27 16 10 6 2 357 352 332 300 278 279 281 291 291 290 285 296 305 329 338 321 328
158 155 160 167 166 159 151 146 141 133 126 116 105 95 87 79 71 63 53 42 30 18 16 15 11 10 11 12 5 356 337 307 287 275 280 281 291 289 302 309 305 308 306
157 155 163 169 163 157 155 149 142 140 131 120 108 94 83 72 65 55 39 29 26 26 31 34 33 29 29 27 19 12 9 341 301 279 267 266 276 293 303 297 303 312 307
155 157 160 161 160 161 155 149 146 140 131 117 103 93 78 68 57 41 32 38 43 41 43 42 38 33 29 30 27 15 7 345 308 295 280 271 267 273 294 300 300 295 290
155 156 158 161 163 159 156 153 143 132 120 106 98 89 71 60 48 37 44 51 51 46 37 30 26 22 25 33 33 24 9 347 312 286 282 279 278 294 297 305 297 302 291
152 157 158 161 162 160 154 147 135 122 115 108 95 68 58 52 40 49 53 56 50 37 23 15 10 2 359 7 5 358 345 332 308 291 278 277 270 264 293 292 297 280 279
155 154 154 158 159 156 150 143 134 122 114 106 84 65 63 54 54 59 57 47 35 28 18 11 1 353 345 343 344 342 336 325 309 298 288 288 287 287 309 308 289 284 266
153 153 152 155 158 157 156 148 141 130 116 102 75 79 74 72 70 57 56 54 46 37 37 28 19 13 0 353 353 338 326 324 309 299 296 302 296 310 322 321 304 285 276
149 146 151 154 156 159 159 154 144 126 120 114 97 94 86 79 76 76 66 59 53 52 44 44 39 29 18 6 1 1 341 328 321 304 302 309 307 308 308 314 301 287 278
146 146 145 148 156 157 157 147 141 128 123 111 98 99 82 93 88 76 65 52 50 45 39 36 35 32 28 16 10 7 5 351 332 316 304 306 304 303 310 315 314 306 289
150 153 142 144 138 141 150 141 133 121 120 116 107 113 113 107 89 63 54 45 38 37 32 23 19 16 18 14 14 14 9 2 357 343 327 316 319 307 302 306 312 307 298
162 161 157 157 148 143 145 133 125 127 122 118 104 126 126 101 72 53 47 39 26 28 18 11 5 3 1 360 359 1 1 358 355 353 350 342 332 324 315 309 311 311 306
174 175 176 174 166 150 144 140 139 131 127 113 121 124 123 63 43 42 37 30 20 11 5 357 355 353 350 345 344 339 340 342 341 342 342 343 345 344 336 322 308 308 306
190 189 187 189 180 172 170 170 165 153 154 157 145 105 68 15 8 8 11 10 4 351 346 342 342 336 330 325 323 324 324 324 326 320 322 327 333 331 330 328 325 317 304
199 201 202 201 191 188 182 182 184 176 181 186 181 177 12 344 328 304 325 330 330 331 327 325 324 317 314 310 311 309 312 311 310 306 302 301 307 312 311 310 313 317 315
207 211 207 208 197 196 197 200 199 192 201 215 255 287 277 282 282 260 264 288 313 321 326 323 318 308 308 311 309 301 302 302 301 306 306 298 294 296 296 295 300 304 305
220 223 220 214 199 203 213 210 222 211 211 213 239 244 245 255 263 256 278 297 307 310 313 314 314 307 306 310 302 300 301 297 300 302 302 296 293 290 286 281 281 284 293
229 228 212 202 194 190 220 219 205 190 190 204 216 229 248 257 258 259 284 293 295 304 315 317 310 308 311 300 299 300 300 302 303 300 305 307 304 295 287 283 271 264 269
230 223 209 205 208 238 233 287 242 181 185 180 201 222 245 253 266 279 288 294 304 311 312 309 307 308 305 301 302 305 306 305 307 311 308 308 313 311 302 294 284 274 265
223 222 218 224 262 198 228 227 210 189 185 221 214 248 275 285 292 290 297 311 314 311 307 297 300 299 307 312 307 303 302 302 304 307 307 301 301 306 302 296 284 280 277
213 218 231 249 244 251 202 189 185 218 237 279 297 297 292 293 308 311 315 319 312 309 310 311 309 309 308 310 310 305 303 313 308 310 299 294 295 295 294 293 304 294 283
180 187 227 277 160 190 178 161 343 324 298 287 291 311 315 309 312 311 317 311 301 299 301 305 310 313 315 318 323 323 325 314 314 300 310 297 297 294 298 301 299 296 293
113 89 87 84 68 340 311 320 333 324 308 311 307 317 314 307 310 308 309 308 309 311 312 314 314 319 321 321 323 329 331 315 321 313 303 300 291 296 302 307 304 301 299
86 80 70 48 34 19 4 348 345 336 327 316 314 309 305 305 304 306 313 322 322 316 313 317 327 325 320 319 314 298 299 310 323 316 302 300 303 305 309 309 307 302 296
72 52 37 24 12 1 348 337 335 324 312 305 296 293 298 304 311 317 322 318 312 310 320 317 322 320 316 312 310 308 303 301 308 304 312 309 310 307 307 310 305 307 305
104 89 52 21 354 335 324 323 314 296 296 286 274 272 296 318 317 313 307 304 299 309 313 311 314 311 305 300 301 308 312 317 312 318 308 308 312 316 313 303 298 306 301